Sparta, IL

9:54 AM CST on December 14, 2019 (GMT -0600)
Sparta Community-Hunter

Weather History for KSAR - November, 2019

Change the Weather History Date:

Thursday, November 21, 2019

  Actual Average (WUND) Record (WUND)
Temperature  
Mean Temperature 50 °F -  
Max Temperature 57 °F - - (-1)
Min Temperature 42 °F - - (-1)
Degree Days  
Heating Degree Days 16    
Moisture  
Dew Point 51 °F    
Average Humidity 97    
Maximum Humidity 100    
Minimum Humidity 90    
Precipitation  
Precipitation 0.13 in - - ()
Sea Level Pressure  
Sea Level Pressure 30.00 in    
Wind  
Wind Speed 10 mph ()    
Max Wind Speed 16 mph    
Max Gust Speed 23 mph    
Visibility 7.6 miles    
Events Rain    
Averages and records for this station are not official NWS values.
T = Trace of Precipitation, MM = Missing Value Source: Averaged Metar Reports

Daily Weather History Graph

Daily Weather History Graph

Search for Another Location

Airport or City:

Astronomy

Nov. 21, 2019 Rise Set
Actual Time 6:46 AM CST 4:42 PM CST
Civil Twilight 6:17 AM CST 5:11 PM CST
Nautical Twilight 5:45 AM CST 5:43 PM CST
Astronomical Twilight 5:13 AM CST 6:15 PM CST
Moon 12:48 AM CST (11/21) 2:05 PM CST (11/21)
Length of Visible Light 10h 53m
Length of Day
9h 56m
Waning Crescent, 29% of the Moon is Illuminated
Nov 21
Waning Crescent
Nov 26
New
Dec 4
First Quarter
Dec 11
Full
Dec 18
Last Quarter

Hourly Weather History & Observations

Time (CST) Temp. Windchill Dew Point Humidity Pressure Visibility Wind Dir Wind Speed Gust Speed Precip Events Conditions
10:35 AM 54.5 °F - 51.8 °F 91% 29.98 in 10.0 mi SSW 13.8 mph 21.9 mph N/A   Overcast
10:55 AM 54.5 °F - 52.0 °F 91% 29.97 in 10.0 mi South 16.1 mph 20.7 mph N/A   Overcast
11:15 AM 55.6 °F - 52.7 °F 90% 29.96 in 10.0 mi SSW 13.8 mph 21.9 mph N/A   Overcast
11:55 AM 56.3 °F - 53.6 °F 91% 29.95 in 10.0 mi SSW 13.8 mph 23.0 mph N/A   Overcast
12:15 PM 55.8 °F - 53.2 °F 91% 29.94 in 10.0 mi SSW 15.0 mph 21.9 mph N/A   Overcast
12:35 PM 56.5 °F - 53.6 °F 90% 29.95 in 10.0 mi SSW 12.7 mph 21.9 mph N/A   Overcast
12:55 PM 56.8 °F - 54.0 °F 90% 29.94 in 10.0 mi SSW 11.5 mph 20.7 mph N/A   Overcast
1:15 PM 57.2 °F - 54.5 °F 91% 29.93 in 10.0 mi South 11.5 mph 19.6 mph N/A   Overcast
1:35 PM 56.7 °F - 54.5 °F 92% 29.94 in 10.0 mi South 12.7 mph 17.3 mph N/A   Overcast
1:55 PM 56.5 °F - 54.5 °F 93% 29.94 in 10.0 mi South 12.7 mph - N/A   Overcast
2:15 PM 56.3 °F - 54.7 °F 94% 29.94 in 10.0 mi SSW 12.7 mph - N/A   Overcast
2:35 PM 56.3 °F - 54.9 °F 95% 29.94 in 10.0 mi South 11.5 mph - N/A   Overcast
2:55 PM 56.1 °F - 54.9 °F 96% 29.94 in 10.0 mi SSW 9.2 mph - N/A   Overcast
3:15 PM 55.8 °F - 55.0 °F 97% 29.94 in 7.0 mi South 10.4 mph - N/A   Overcast
3:55 PM 55.4 °F - 55.4 °F 100% 29.96 in 3.0 mi SSW 8.1 mph - N/A   Overcast
4:15 PM 55.4 °F - 55.4 °F 100% 29.97 in 3.0 mi SSW 6.9 mph - N/A   Overcast
4:35 PM 55.4 °F - 55.4 °F 100% 29.97 in 2.0 mi SSW 6.9 mph - N/A   Overcast
4:55 PM 55.2 °F - 55.2 °F 100% 29.97 in 2.5 mi SSW 4.6 mph - N/A   Overcast
5:15 PM 55.4 °F - 55.4 °F 100% 29.98 in 2.5 mi SW 5.8 mph - N/A   Overcast
5:35 PM 55.4 °F - 55.4 °F 100% 29.99 in 2.0 mi Calm Calm - 0.01 in Rain Rain
5:55 PM 55.4 °F - 55.4 °F 100% 30.00 in 1.8 mi WNW 5.8 mph - 0.02 in   Heavy Drizzle
6:15 PM 52.0 °F - 52.0 °F 100% 30.01 in 5.0 mi NNW 4.6 mph - 0.01 in   Drizzle
6:35 PM 50.9 °F - 50.9 °F 100% 30.02 in 5.0 mi NNW 8.1 mph - 0.01 in   Overcast
6:55 PM 50.0 °F - 49.8 °F 99% 30.03 in 5.0 mi NW 10.4 mph 16.1 mph 0.01 in Rain Light Rain
7:15 PM 49.6 °F - 49.6 °F 100% 30.03 in 4.0 mi NNW 6.9 mph - N/A   Light Drizzle
7:35 PM 48.7 °F - 48.7 °F 100% 30.05 in 5.0 mi NNW 9.2 mph - N/A   Overcast
7:55 PM 48.6 °F - 48.4 °F 99% 30.06 in 7.0 mi NNW 8.1 mph - N/A   Overcast
8:15 PM 48.4 °F - 47.7 °F 97% 30.05 in 10.0 mi NNW 5.8 mph - N/A   Overcast
8:35 PM 48.2 °F - 47.3 °F 97% 30.06 in 10.0 mi NNW 6.9 mph - N/A   Overcast
8:55 PM 47.7 °F - 46.8 °F 97% 30.06 in 10.0 mi NNW 9.2 mph - N/A   Light Drizzle
9:15 PM 47.3 °F - 46.6 °F 97% 30.06 in 10.0 mi NNW 4.6 mph - N/A Rain Light Rain
9:35 PM 47.3 °F - 46.4 °F 97% 30.07 in 10.0 mi NNW 4.6 mph - N/A   Drizzle
9:55 PM 46.9 °F - 46.4 °F 98% 30.07 in 7.0 mi NW 4.6 mph - 0.03 in Rain Rain
10:15 PM 46.4 °F 45.2 °F 46.4 °F 100% 30.08 in 7.0 mi NW 3.5 mph - 0.02 in Rain Light Rain
10:35 PM 46.4 °F 44.3 °F 46.4 °F 100% 30.07 in 7.0 mi NNW 4.6 mph - 0.02 in   Light Drizzle
10:55 PM 45.7 °F 39.5 °F 45.3 °F 99% 30.08 in 10.0 mi North 13.8 mph - 0.03 in Rain Light Rain
11:15 PM 43.9 °F 37.9 °F 43.5 °F 99% 30.08 in 10.0 mi North 11.5 mph 19.6 mph 0.02 in Rain Light Rain
11:35 PM 42.8 °F 36.6 °F 42.4 °F 99% 30.07 in 10.0 mi North 11.5 mph 19.6 mph 0.04 in Rain Light Rain
11:55 PM 42.4 °F 37.0 °F 41.9 °F 98% 30.09 in 10.0 mi North 9.2 mph - 0.04 in Rain Rain